Location: Newark
(49.1022°N, 20.8503°E)
Time: 08:04:42
(UTC+00:00)

Envisat - Pass Details

Date: 30 September 2020
Orbit: 764 x 766 km, 98.1° (Epoch: 21 October)

Event Time Altitude Azimuth Distance (km) Brightness Sun altitude
Rises 16:39:35 0° 196° (SSW) 3,220 6.4 -4.6°
Reaches altitude 10° 16:42:11 10° 208° (SSW) 2,299 5.9 -5.0°
Maximum altitude 16:46:30 28° 267° (W) 1,423 5.5 -5.7°
Drops below altitude 10° 16:50:51 10° 325° (NW) 2,313 6.1 -6.4°
Sets 16:53:29 0° 337° (NNW) 3,244 6.6 -6.8°
